Malaga, Spain

6:52 AM CEST en Abril 24, 2018 (GMT +0200)
Malaga

Tiempo Historia de LEMG - Enero, 2018

Change the Weather History Date:

Domingo, Enero 14, 2018

  Actual Average Record
Temperature  
Temperatura media 47 ° F -  
Temperatura máxima 53 ° F 60 ° F 70 ° F (2016)
Temperatura mínima 41 ° F 44 ° F 39 ° F (2000)
Degree Days  
Grados día de calefacción 18    
Moisture  
Punto de rocío 43 ° F    
Average Humidity 83    
Maximum Humidity 100    
Minimum Humidity 69    
Precipitación  
Precipitación 0.08 pul 0.10 pul - ()
Presión al nivel del mar  
Presión al nivel del mar 30.13 pul    
Viento  
Velocidad del viento 6 mph ()    
Velocidad máxima del viento 13 mph    
Max Gust Speed -    
Visibilidad 6.2 Millas    
Eventos Lluvia    
Averages and records for this station are not official NWS values.
T = Trace of Precipitation, MM = Missing Value Source: Averaged Metar Reports

Daily Weather History Graph

Daily Weather History Graph

Search for Another Location

Airport or City:

Astronomía

Jan. 14, 2018 Salida Puesta
Hora real 8:29 AM CET 6:24 PM CET
Crepúsculo civil 8:01 AM CET 6:52 PM CET
Crepúsculo náutico 7:29 AM CET 7:24 PM CET
Crepúsculo astronómico 6:58 AM CET 7:55 PM CET
Luna 6:13 AM CET (1/14) 4:31 PM CET (1/14)
Horas de luz 10h 51m
Horas de luz
9h 54m
Creciente menguante, 6% of the Moon is Illuminated
Ene 14
Creciente menguante
Ene 17
Nueva
Ene 24
Cuarto creciente
Ene 31
Luna llena
Feb 7
Cuarto menguante

Hourly Weather History & Observations

Hora (CET) Temp. Vientos helados Punto de rocío Humedad Presión Visibilidad Wind Dir Velocidad del viento Velocidad de ráfagas Precip Eventos Condiciones
12:00 AM 50.0 ° F - 41.0 ° F 71% 30.18 pul - ONO 8.1 mph - N/A   Despejado
12:30 AM 48.2 ° F - 41.0 ° F 76% 30.18 pul - ONO 8.1 mph - N/A   Despejado
1:00 AM 44.6 ° F 42.2 ° F 41.0 ° F 87% 30.18 pul - ONO 4.6 mph - N/A   Despejado
1:30 AM 44.6 ° F 40.2 ° F 39.2 ° F 81% 30.18 pul - ONO 8.1 mph - N/A   Despejado
2:00 AM 46 ° F - 40 ° F 72% 30.18 pul - Oeste 10.4 mph - -  
2:00 AM 48.2 ° F - 41.0 ° F 76% 30.15 pul - Oeste 10.4 mph - N/A   Despejado
2:30 AM 48.2 ° F - 41.0 ° F 76% 30.15 pul - ONO 10.4 mph - N/A   Despejado
3:00 AM 46 ° F - 40 ° F 72% 30.17 pul - ONO 10.4 mph - -  
3:00 AM 48.2 ° F - 42.8 ° F 82% 30.15 pul - ONO 9.2 mph - N/A   Despejado
3:30 AM 48.2 ° F - 41.0 ° F 76% 30.15 pul - ONO 9.2 mph - N/A   Despejado
4:00 AM 46 ° F - 40 ° F 72% 30.16 pul 9 mi ONO 10.4 mph - -   Despejado
4:00 AM 46.4 ° F 41.9 ° F 41.0 ° F 81% 30.15 pul - ONO 9.2 mph - N/A   Despejado
4:30 AM 46.4 ° F 42.9 ° F 41.0 ° F 81% 30.15 pul - Oeste 6.9 mph - N/A   Despejado
5:00 AM 45 ° F - 40 ° F 75% 30.16 pul - ONO 9.2 mph - -  
5:00 AM 48.2 ° F - 41.0 ° F 76% 30.15 pul - ONO 8.1 mph - N/A   Despejado
5:30 AM 46.4 ° F 41.1 ° F 41.0 ° F 81% 30.12 pul - ONO 11.5 mph - N/A   Despejado
6:00 AM 45 ° F - 40 ° F 75% 30.15 pul - ONO 12.7 mph - -  
6:00 AM 48.2 ° F - 41.0 ° F 76% 30.12 pul - ONO 11.5 mph - N/A   Despejado
6:30 AM 48.2 ° F - 41.0 ° F 76% 30.12 pul - ONO 9.2 mph - N/A   Despejado
7:00 AM 46 ° F - 40 ° F 72% 30.14 pul 9 mi Oeste 5.8 mph - -   Despejado
7:00 AM 48.2 ° F - 41.0 ° F 76% 30.12 pul - Oeste 4.6 mph - N/A   Despejado
7:30 AM 41.0 ° F 37.1 ° F 39.2 ° F 93% 30.12 pul - NO 5.8 mph - N/A   Despejado
8:00 AM 41.0 ° F 38.0 ° F 39.2 ° F 93% 30.12 pul - NO 4.6 mph - N/A   Despejado
8:30 AM 42.8 ° F 41.1 ° F 39.2 ° F 87% 30.12 pul 6.2 mi NO 3.5 mph - N/A   Parcialmente nublado
9:00 AM 44 ° F - 39 ° F 78% 30.15 pul - NO 4.6 mph - -  
9:00 AM 44.6 ° F 42.2 ° F 41.0 ° F 87% 30.12 pul 6.2 mi NO 4.6 mph - N/A   Parcialmente nublado
9:30 AM 44.6 ° F 43.1 ° F 41.0 ° F 87% 30.12 pul 6.2 mi ONO 3.5 mph - N/A   Parcialmente nublado
10:00 AM 46 ° F - 41 ° F 76% 30.15 pul 12 mi ONO 4.6 mph - -   Nubes dispersas
10:00 AM 46.4 ° F 43.5 ° F 42.8 ° F 87% 30.12 pul 6.2 mi ONO 5.8 mph - N/A   Nubes dispersas
10:30 AM 46.4 ° F 45.2 ° F 42.8 ° F 87% 30.15 pul 6.2 mi ONO 3.5 mph - N/A   Nubes dispersas
11:00 AM 49 ° F - 44 ° F 78% 30.16 pul - ONO 3.5 mph - -   Precipitación desconocida
11:00 AM 50.0 ° F - 44.6 ° F 82% 30.15 pul 6.2 mi ONO 3.5 mph - N/A Lluvia Lluvia débil
11:30 AM 50.0 ° F - 46.4 ° F 87% 30.15 pul 6.2 mi Variable 1.2 mph - N/A Lluvia Lluvia débil
12:00 PM 49 ° F - 46 ° F 85% 30.16 pul - ONO 4.6 mph - -   Precipitación desconocida
12:00 PM 48.2 ° F - 46.4 ° F 93% 30.15 pul 6.2 mi ONO 3.5 mph - N/A Lluvia Lluvia débil
12:30 PM 48.2 ° F - 46.4 ° F 93% 30.12 pul 5.0 mi ONO 3.5 mph - N/A Lluvia Lluvia débil
1:00 PM 48 ° F - 47 ° F 93% 30.14 pul 5 mi ONO 2.3 mph - - Lluvia Lluvia débil
1:00 PM 48.2 ° F - 46.4 ° F 93% 30.12 pul 5.0 mi ONO 2.3 mph - N/A Lluvia Lluvia débil
1:30 PM 48.2 ° F - 48.2 ° F 100% 30.12 pul 3.7 mi Variable 2.3 mph - N/A Lluvia Lluvia débil
2:00 PM 49 ° F - 47 ° F 90% 30.11 pul 4 mi NO 3.5 mph - - Lluvia Lluvia débil
2:00 PM 50.0 ° F - 48.2 ° F 94% 30.09 pul 3.7 mi NO 1.2 mph - N/A Lluvia Lluvia débil
2:30 PM 50.0 ° F - 46.4 ° F 87% 30.09 pul 3.7 mi NO 3.5 mph - N/A Lluvia Lluvia débil
3:00 PM 50 ° F - 47 ° F 88% 30.09 pul - ONO 5.8 mph - -   Precipitación desconocida
3:00 PM 50.0 ° F - 46.4 ° F 87% 30.06 pul 5.6 mi ONO 2.3 mph - N/A Lluvia Lluvia débil
3:30 PM 51.8 ° F - 48.2 ° F 88% 30.06 pul 5.6 mi Oeste 5.8 mph - N/A Lluvia Lluvia débil
4:00 PM 51 ° F - 48 ° F 85% 30.09 pul 6 mi Oeste 4.6 mph - - Lluvia Lluvia débil
4:00 PM 51.8 ° F - 46.4 ° F 82% 30.06 pul 6.2 mi Oeste 4.6 mph - N/A   Muy nublado
4:30 PM 51.8 ° F - 46.4 ° F 82% 30.06 pul 6.2 mi ONO 1.2 mph - N/A   Muy nublado
5:00 PM 53 ° F - 49 ° F 82% 30.09 pul - Oeste 2.3 mph - -  
5:00 PM 53.6 ° F - 48.2 ° F 82% 30.06 pul 6.2 mi Variable 2.3 mph - N/A   Muy nublado
5:30 PM 53.6 ° F - 46.4 ° F 77% 30.06 pul 6.2 mi NO 2.3 mph - N/A   Nubes dispersas
6:00 PM 52 ° F - 47 ° F 77% 30.09 pul - ONO 2.3 mph - -   Precipitación desconocida
6:00 PM 51.8 ° F - 46.4 ° F 82% 30.06 pul 6.2 mi NO 1.2 mph - N/A   Nubes dispersas
6:30 PM 50.0 ° F - 46.4 ° F 87% 30.09 pul 6.2 mi Oeste 1.2 mph - N/A   Nubes dispersas
7:00 PM 48 ° F - 46 ° F 89% 30.11 pul 9 mi Oeste 2.3 mph - -   Nubes dispersas
7:00 PM 48.2 ° F - 46.4 ° F 93% 30.09 pul 6.2 mi ONO 1.2 mph - N/A   Nubes dispersas
7:30 PM 48.2 ° F - 44.6 ° F 87% 30.09 pul 6.2 mi Variable 2.3 mph - N/A   Nubes dispersas
8:00 PM 47 ° F - 44 ° F 83% 30.13 pul - ONO 4.6 mph - -  
8:00 PM 46.4 ° F 45.2 ° F 44.6 ° F 93% 30.12 pul 6.2 mi ONO 3.5 mph - N/A   Parcialmente nublado
8:30 PM 46.4 ° F 41.9 ° F 42.8 ° F 87% 30.12 pul 6.2 mi ONO 9.2 mph - N/A   Parcialmente nublado
9:00 PM 46 ° F - 42 ° F 80% 30.14 pul - Oeste 9.2 mph - -  
9:00 PM 46.4 ° F 41.9 ° F 42.8 ° F 87% 30.12 pul 6.2 mi Oeste 9.2 mph - N/A   Parcialmente nublado
9:30 PM 46.4 ° F 41.5 ° F 42.8 ° F 87% 30.12 pul 6.2 mi ONO 10.4 mph - N/A   Nubes dispersas
10:00 PM 48.2 ° F - 41.0 ° F 76% 30.12 pul 6.2 mi ONO 12.7 mph - N/A   Parcialmente nublado
10:30 PM 46.4 ° F 41.9 ° F 41.0 ° F 81% 30.15 pul 6.2 mi ONO 9.2 mph - N/A   Parcialmente nublado
11:00 PM 47 ° F - 40 ° F 69% 30.17 pul - Oeste 11.5 mph - -  
11:00 PM 48.2 ° F - 39.2 ° F 71% 30.15 pul 6.2 mi Oeste 11.5 mph - N/A   Parcialmente nublado
11:30 PM 48.2 ° F - 39.2 ° F 71% 30.15 pul 6.2 mi Oeste 12.7 mph - N/A   Parcialmente nublado